EW2817 Weather Reports


time (UTC)temp
F
wind
direction
speed
knots
gust
knots
rain 1hr
in
rain 24hr
in
rain mn
in
humidity
%
barometer
mb
20260506134236 64 0 0.0 0.0 0.00 0.00 0.00 79 990.4
20260506125729 64 0 0.0 0.0 0.00 0.00 0.00 80 991.0
20260506124229 64 0 0.0 0.0 0.00 0.00 0.00 80 990.7
20260506122728 64 0 0.0 0.0 0.00 0.00 0.00 79 990.4
20260506121228 63 0 0.0 0.0 0.00 0.00 0.00 81 990.2
20260506115725 63 0 0.0 0.0 0.00 0.00 0.00 81 990.0
20260506114223 63 0 0.0 0.0 0.00 0.00 0.00 81 989.8
20260506111221 62 0 0.0 0.0 0.00 0.00 0.00 80 990.0
20260506105720 62 0 0.0 0.0 0.00 0.00 0.00 80 989.9
20260506104217 62 0 0.0 0.0 0.00 0.00 0.00 80 989.9
20260506102716 62 0 0.0 0.0 0.00 0.00 0.00 80 989.7
20260506101219 63 0 0.0 0.0 0.00 0.00 0.00 79 989.5
20260506095716 63 0 0.0 0.0 0.00 0.00 0.00 79 989.8
20260506094215 63 0 0.0 0.0 0.00 0.00 0.00 79 989.8
20260506092714 63 0 0.0 0.0 0.00 0.00 0.00 78 989.9
20260506091214 63 0 0.0 0.0 0.00 0.00 0.00 79 990.2
20260506085715 63 0 0.0 0.0 0.00 0.00 0.00 80 990.4
20260506084215 63 0 0.0 0.0 0.00 0.00 0.00 80 990.2
20260506082712 63 0 0.0 0.0 0.00 0.00 0.00 80 990.3
20260506081214 63 0 0.0 0.0 0.00 0.00 0.00 80 990.2
20260506072711 63 0 0.0 0.0 0.00 0.00 0.00 79 990.3
20260506061206 64 0 0.0 0.0 0.00 0.00 0.00 78 990.7
20260506041157 67 0 0.0 0.0 0.00 0.00 0.00 72 991.1
20260506035654 67 0 0.0 0.0 0.00 0.00 0.00 71 991.2
20260506034154 68 0 0.0 0.0 0.00 0.00 0.00 70 991.1
20260506032654 68 0 0.0 0.0 0.00 0.00 0.00 69 991.3
20260506025653 69 0 0.0 0.0 0.00 0.00 0.00 66 991.2
20260506024152 70 0 0.0 0.0 0.00 0.00 0.00 65 991.4
20260506021149 71 0 0.0 0.0 0.00 0.00 0.00 61 991.1
20260506015647 71 0 0.0 0.0 0.00 0.00 0.00 59 991.0
20260506014147 72 0 0.0 0.0 0.00 0.00 0.00 56 990.8
20260506011145 73 0 0.0 0.0 0.00 0.00 0.00 53 990.5
20260506004144 74 0 0.0 0.0 0.00 0.00 0.00 51 990.2
20260506002644 74 0 0.0 0.0 0.00 0.00 0.00 51 990.0
20260505235641 76 0 0.0 0.0 0.00 0.00 0.00 48 989.7
20260505232636 77 0 0.0 0.0 0.00 0.00 0.00 46 989.6
20260505225638 77 0 0.0 0.0 0.00 0.00 0.00 44 989.7
20260505222634 78 0 0.0 0.0 0.00 0.00 0.00 44 989.8
20260505221134 78 0 0.0 0.0 0.00 0.00 0.00 43 990.0
20260505214132 79 0 0.0 0.0 0.00 0.00 0.00 41 990.0
20260505212632 80 0 0.0 0.0 0.00 0.00 0.00 41 990.0
20260505211131 79 0 0.0 0.0 0.00 0.00 0.00 42 990.0
20260505205629 80 0 0.0 0.0 0.00 0.00 0.00 41 990.2
20260505204128 79 0 0.0 0.0 0.00 0.00 0.00 41 990.1
20260505201127 80 0 0.0 0.0 0.00 0.00 0.00 41 990.6
20260505195624 80 0 0.0 0.0 0.00 0.00 0.00 40 990.6
20260505194124 81 0 0.0 0.0 0.00 0.00 0.00 39 990.7
20260505192621 81 0 0.0 0.0 0.00 0.00 0.00 38 991.0
20260505191121 81 0 0.0 0.0 0.00 0.00 0.00 38 991.3
20260505185620 82 0 0.0 0.0 0.00 0.00 0.00 36 991.5
20260505184118 82 0 0.0 0.0 0.00 0.00 0.00 38 991.8
20260505182616 82 0 0.0 0.0 0.00 0.00 0.00 35 991.9
20260505181116 83 0 0.0 0.0 0.00 0.00 0.00 36 992.1
20260505175614 83 0 0.0 0.0 0.00 0.00 0.00 36 992.1
20260505174114 83 0 0.0 0.0 0.00 0.00 0.00 37 992.3
20260505172614 83 0 0.0 0.0 0.00 0.00 0.00 36 992.3
20260505171112 83 0 0.0 0.0 0.00 0.00 0.00 39 992.4
20260505165610 82 0 0.0 0.0 0.00 0.00 0.00 38 992.6
20260505162604 81 0 0.0 0.0 0.00 0.00 0.00 41 992.7
20260505161102 80 0 0.0 0.0 0.00 0.00 0.00 43 992.8
20260505152602 78 0 0.0 0.0 0.00 0.00 0.00 47 993.3
20260505151100 76 0 0.0 0.0 0.00 0.00 0.00 50 993.2